sat.trackr.live / text

‹ back to catalog

STARLINK-4764

NORAD 53827 · 2022-114K

PAYLOAD ACTIVE UNKNOWN

§ Identity

Operator
Country
US
Launch date
2022-09-19
Launch site
AFETR
Launch vehicle
Mass (kg)
RCS (m²)

Purposes: comms

External: N2YO · Heavens-Above · Gunter

§ Orbital elements

Epoch: 2026-09-20T22:40:04.775808Z

Period
93.79 min
Inclination
53.1593°
Eccentricity
0.0000565
Mean motion
15.35402556 rev/d
Perigee alt
459.3 km
Apogee alt
460.1 km
Semi-major
6,837.9 km
B*
-9.9248e-5
RAAN
138.1335°
Arg perigee
335.8652°
Mean anomaly
24.2324°
Rev number
22,243

§ Raw data

STARLINK-47641 53827U 22114K   26263.94449972 -.00003840  00000+0 -99248-4 0  99942 53827  53.1593 138.1335 0000565 335.8652  24.2324 15.35402556222431

JSON: /api/v1/satellites/53827 · /tle

For live sub-satellite position, see the globe view (requires WebGL).

§ Visibility from observer

Set your observer location to see the next 7 days of passes ≥ 10°. The values pass through the URL so the page stays shareable.

No JS? Fill the form by hand. The geolocation button needs JavaScript.